Naples, FL

2:18 AM EDT on July 25, 2017 (GMT -0400)
Naples Municipal

Weather History for KAPF - June, 2013

Change the Weather History Date:

Thursday, June 20, 2013

  Actual Average Record
Temperature  
Mean Temperature 81 °F 82 °F  
Max Temperature 90 °F 90 °F 96 °F (1964)
Min Temperature 72 °F 75 °F 68 °F (1979)
Degree Days  
Heating Degree Days 0 0  
Month to date heating degree days 0 0  
Since 1 June heating degree days 0 0  
Since 1 July heating degree days 182 260  
Cooling Degree Days 16 17  
Month to date cooling degree days 323 330  
Year to date cooling degree days 1427 1358  
Since 1 June cooling degree days 323 330  
Growing Degree Days 30 (Base 50)    
Moisture  
Dew Point 72 °F    
Average Humidity 75    
Maximum Humidity 94    
Minimum Humidity 56    
Precipitation  
Precipitation 1.74 in 0.33 in 2.00 in (1942)
Month to date precipitation 5.67 5.31  
Year to date precipitation 16.01 17.16  
Snow  
Snow 0.00 in - - ()
Month to date snowfall 0.0  
Since 1 June snowfall 0.0  
Since 1 July snowfall 0.0  
Snow Depth 0.00 in    
Sea Level Pressure  
Sea Level Pressure 30.06 in    
Wind  
Wind Speed 6 mph (East)    
Max Wind Speed 35 mph    
Max Gust Speed 43 mph    
Visibility 7 miles    
Events Fog , Rain , Thunderstorm    
T = Trace of Precipitation, MM = Missing Value Source: NWS Daily Summary

Daily Weather History Graph

Daily Weather History Graph

Search for Another Location

Airport or City:

Trip Planner

Search our weather history database for the weather conditions in past years. The results will help you decide how hot, cold, wet, or windy it might be!

Date:

Astronomy

Jun. 20, 2013 Rise Set
Actual Time 6:35 AM EDT 8:22 PM EDT
Civil Twilight 6:09 AM EDT 8:48 PM EDT
Nautical Twilight 5:37 AM EDT 9:19 PM EDT
Astronomical Twilight 5:04 AM EDT 9:52 PM EDT
Moon 5:32 PM EDT (6/20) 3:48 AM EDT (6/20)
Length of Visible Light 14h 39m
Length of Day
13h 46m
Waxing Gibbous, 89% of the Moon is Illuminated
Jun 20
Waxing Gibbous
Jun 23
Full
Jun 30
Last Quarter
Jul 8
New
Jul 15
First Quarter

Hourly Weather History & Observations

Time (EDT) Temp. Heat Index Dew Point Humidity Pressure Visibility Wind Dir Wind Speed Gust Speed Precip Events Conditions
12:53 AM 73.9 °F - 71.1 °F 91% 30.05 in 10.0 mi ESE 3.5 mph - N/A   Clear
1:53 AM 75.0 °F - 71.1 °F 87% 30.04 in 10.0 mi ENE 3.5 mph - N/A   Clear
2:53 AM 73.9 °F - 71.1 °F 91% 30.04 in 10.0 mi NE 4.6 mph - N/A   Clear
3:53 AM 73.9 °F - 71.1 °F 91% 30.02 in 10.0 mi Calm Calm - N/A   Scattered Clouds
4:53 AM 73.9 °F - 71.1 °F 91% 30.03 in 10.0 mi Calm Calm - N/A   Mostly Cloudy
5:53 AM 75.0 °F - 71.1 °F 87% 30.04 in 10.0 mi East 4.6 mph - N/A   Partly Cloudy
6:53 AM 75.0 °F - 72.0 °F 90% 30.04 in 9.0 mi East 3.5 mph - N/A   Partly Cloudy
7:53 AM 78.1 °F - 73.0 °F 84% 30.06 in 8.0 mi East 3.5 mph - N/A   Mostly Cloudy
8:53 AM 82.0 °F 88.6 °F 75.0 °F 79% 30.07 in 8.0 mi ESE 5.8 mph - N/A   Partly Cloudy
9:53 AM 84.9 °F 94.1 °F 75.9 °F 74% 30.07 in 8.0 mi SSE 6.9 mph - N/A   Scattered Clouds
10:41 AM 87.8 °F 97.6 °F 75.2 °F 66% 30.07 in 7.0 mi SSE 11.5 mph - N/A   Mostly Cloudy
10:53 AM 87.1 °F 96.3 °F 75.0 °F 67% 30.07 in 8.0 mi Variable 5.8 mph - N/A   Mostly Cloudy
11:53 AM 88.0 °F 95.6 °F 73.0 °F 61% 30.08 in 9.0 mi SSE 9.2 mph - N/A   Scattered Clouds
12:53 PM 90.0 °F 96.4 °F 71.1 °F 54% 30.08 in 8.0 mi South 6.9 mph - N/A   Mostly Cloudy
1:53 PM 89.1 °F 98.0 °F 73.9 °F 61% 30.06 in 8.0 mi SW 12.7 mph - N/A   Scattered Clouds
2:53 PM 88.0 °F 96.5 °F 73.9 °F 63% 30.04 in 8.0 mi SW 10.4 mph - N/A   Scattered Clouds
3:02 PM 87.8 °F 95.6 °F 73.4 °F 62% 30.05 in 8.0 mi WSW 8.1 mph - N/A Thunderstorm Clear
3:18 PM 87.8 °F 95.6 °F 73.4 °F 62% 30.05 in 8.0 mi West 12.7 mph - N/A   Clear
3:53 PM 87.1 °F 94.5 °F 73.0 °F 63% 30.04 in 8.0 mi West 6.9 mph - N/A   Clear
4:53 PM 87.1 °F 94.5 °F 73.0 °F 63% 30.03 in 8.0 mi WSW 6.9 mph - N/A   Clear
5:53 PM 87.1 °F 96.3 °F 75.0 °F 67% 30.03 in 8.0 mi WNW 6.9 mph - N/A   Mostly Cloudy
6:23 PM 82.4 °F 88.2 °F 73.4 °F 74% 30.05 in 10.0 mi East 12.7 mph - N/A Thunderstorm Overcast
6:43 PM 75.2 °F - 71.6 °F 89% 30.05 in 1.8 mi East 27.6 mph 31.1 mph 0.12 in Rain , Thunderstorm Heavy Thunderstorms and Rain
6:49 PM 73.4 °F - 69.8 °F 88% 30.06 in 0.5 mi East 28.8 mph 35.7 mph 0.41 in Fog , Rain , Thunderstorm Heavy Thunderstorms and Rain
6:53 PM 73.9 °F - 69.1 °F 85% 30.06 in 0.5 mi East 27.6 mph 42.6 mph 0.64 in Rain , Thunderstorm Heavy Thunderstorms and Rain
7:00 PM 75.2 °F - 69.8 °F 83% 30.08 in 0.2 mi North 8.1 mph 42.6 mph 0.34 in Rain , Thunderstorm Heavy Thunderstorms and Rain
7:12 PM 75.2 °F - 69.8 °F 83% 30.07 in 0.2 mi North 6.9 mph 26.5 mph 0.89 in Rain , Thunderstorm Heavy Thunderstorms and Rain
7:17 PM 71.6 °F - 69.8 °F 94% 30.07 in 0.5 mi North 4.6 mph - 1.02 in Fog , Rain , Thunderstorm Heavy Thunderstorms and Rain
7:27 PM 73.4 °F - 71.6 °F 94% 30.06 in 2.0 mi NNE 5.8 mph - 1.10 in Rain , Thunderstorm Thunderstorms and Rain
7:31 PM 73.4 °F - 71.6 °F 94% 30.06 in 3.0 mi NE 3.5 mph - 1.10 in Rain , Thunderstorm Thunderstorms and Rain
7:41 PM 73.4 °F - 73.4 °F 100% 30.06 in 3.0 mi ENE 3.5 mph - 1.10 in Rain Light Rain
7:53 PM 73.9 °F - 73.9 °F 100% 30.06 in 10.0 mi Calm Calm - 1.10 in   Scattered Clouds
8:53 PM 75.9 °F - 71.1 °F 85% 30.07 in 10.0 mi Calm Calm - N/A   Clear
9:53 PM 75.9 °F - 73.0 °F 91% 30.08 in 10.0 mi East 3.5 mph - N/A   Clear
10:53 PM 75.9 °F - 73.9 °F 94% 30.08 in 10.0 mi ENE 3.5 mph - N/A   Clear
11:53 PM 75.9 °F - 73.0 °F 91% 30.09 in 10.0 mi Calm Calm - N/A   Partly Cloudy